Location: Zagreb
(45.8000°N, 16.0000°E)
Time: 09:19:26
(UTC+02:00)

X-37B - Pass Details

Date: 02 July 2022
Orbit: 328 x 343 km, 45.0° (Epoch: 12 August)

Event Time Altitude Azimuth Distance (km) Brightness Sun altitude
Rises 23:16:12 0° 275° (W) 2,093 4.7 -17.3°
Reaches altitude 10° 23:18:13 10° 272° (W) 1,259 3.5 -17.4°
Enters shadow 23:20:33 52° 241° (WSW) 418 0.6 -17.6°
